Location: Cazarilh
(42.9578°N, 0.5819°E)
Time: 01:51:10
(UTC+00:00)

Cosmos 1733 Rocket - Pass Details

Date: 11 December 2019
Orbit: 604 x 627 km, 82.5° (Epoch: 25 January)

Event Time Altitude Azimuth Distance (km) Brightness Sun altitude
Rises 06:17:21 0° 195° (SSW) 2,845 6.5 -10.8°
Reaches altitude 10° 06:19:34 10° 199° (SSW) 1,946 5.7 -10.4°
Maximum altitude 06:23:49 60° 280° (W) 693 3.0 -9.7°
Drops below altitude 10° 06:28:07 10° 1° (N) 1,963 5.4 -9.0°
Sets 06:30:22 0° 5° (N) 2,874 6.3 -8.6°
